Temperature
20 20 19 19 19 19 19 18 18 17 17 17 17 17 16 16 16 16 16 16 16 16 16 16 16 16 15 15 15 15 15 15 15 15 15 15 15 15 15 14 14 14 14
20 20 19 19 19 19 19 18 18 17 17 17 17 16 16 16 16 16 16 16 16 16 16 16 16 15 15 15 15 15 15 15 15 15 15 15 14 14 14 14 14 14 14
20 20 19 19 19 19 18 18 18 17 17 17 17 16 16 16 16 16 16 16 16 16 16 16 15 15 15 15 15 15 15 15 15 15 15 15 14 14 14 14 14 14 14
20 20 19 19 19 18 18 18 18 17 17 17 16 16 16 16 16 16 16 16 16 16 15 15 15 15 15 15 15 15 15 15 15 15 15 15 15 15 14 14 14 14 14
20 20 19 19 19 18 18 18 18 17 17 17 16 16 16 16 16 16 16 16 16 15 15 15 15 15 15 15 15 15 15 15 15 15 15 15 15 15 15 14 14 14 14
20 20 19 19 18 18 18 18 17 17 17 17 16 16 16 16 16 16 16 16 16 16 16 15 15 15 15 15 15 15 15 15 15 15 15 15 15 15 15 14 14 14 14
20 20 19 19 18 18 18 17 17 17 17 17 16 16 16 16 16 16 16 16 16 16 15 15 16 15 15 15 15 15 15 15 15 15 15 15 15 14 14 14 14 14 14
20 19 19 18 18 18 17 17 17 17 17 17 17 17 16 16 16 16 16 16 16 16 16 15 16 15 15 15 15 15 15 15 15 15 15 14 14 14 14 14 14 14 14
20 19 19 18 18 17 17 17 17 17 17 17 17 17 16 16 16 16 16 16 16 16 16 16 16 15 15 15 15 15 15 15 15 15 14 14 14 14 14 14 14 14 14
20 19 18 18 18 17 17 17 17 17 17 17 17 17 16 16 16 16 16 16 16 16 16 16 16 15 15 15 15 15 15 15 15 15 14 14 14 14 14 14 14 14 14
20 19 18 18 18 17 17 17 17 17 17 17 17 16 16 16 16 16 16 16 16 16 16 16 15 15 15 15 15 15 15 15 15 14 14 14 14 14 14 14 14 14 14
20 19 18 18 18 17 17 17 17 17 17 17 16 16 16 16 16 16 16 16 16 16 16 16 15 15 15 15 15 15 15 14 15 14 14 14 14 14 14 14 14 13 13
20 19 19 18 18 17 17 17 17 17 16 16 16 16 16 16 16 16 16 16 16 16 16 15 15 15 15 15 15 15 14 14 14 14 14 14 14 14 14 14 13 13 13
20 19 18 18 18 17 17 17 17 16 16 16 16 16 16 16 16 16 16 16 16 15 15 15 15 15 15 15 15 15 14 14 14 14 14 14 14 14 14 14 13 13 13
20 19 18 18 18 17 17 17 16 16 16 16 16 16 16 16 16 16 16 15 15 15 15 15 15 15 15 15 15 14 14 14 14 14 14 14 14 13 13 13 13 13 13
19 19 18 18 18 18 17 17 16 16 16 16 16 16 15 15 16 15 15 15 15 15 15 15 15 15 15 15 14 14 14 14 14 14 14 14 13 13 13 13 13 13 12
19 19 18 18 18 17 17 17 16 16 16 16 15 15 15 15 15 15 15 15 15 15 15 15 15 15 14 14 14 14 14 14 14 13 13 13 13 13 13 13 13 12 12
19 18 18 18 17 17 17 17 16 16 16 15 15 15 15 15 15 15 15 15 15 15 15 14 14 14 14 14 14 14 14 14 14 13 13 13 13 13 12 12 12 12 12
18 18 18 18 17 17 17 16 16 16 16 15 15 15 15 15 15 15 15 15 14 14 14 14 14 14 14 14 14 14 14 14 13 13 13 13 13 12 12 12 12 12 11
18 18 17 17 17 17 17 16 16 16 15 15 15 15 15 15 14 14 14 14 14 14 14 14 14 14 14 14 14 14 14 13 13 13 13 12 12 12 12 12 11 11 11
18 17 17 17 17 17 16 16 16 16 15 15 15 15 15 15 14 14 14 14 14 14 14 14 14 14 14 14 14 14 14 13 13 13 12 12 12 12 12 11 11 11 10
17 17 17 17 16 16 16 16 15 15 15 15 15 15 14 14 14 14 14 14 14 13 13 13 13 13 13 13 13 13 13 13 13 12 12 12 12 11 11 11 11 11 10
17 17 16 16 16 16 15 15 15 15 15 15 15 14 14 14 14 14 14 14 13 13 13 13 13 13 13 13 13 13 13 12 12 12 12 11 11 11 11 11 10 10 10
16 16 16 16 15 15 15 15 15 15 15 14 14 14 14 14 14 14 14 13 13 13 13 13 13 13 13 13 13 13 12 12 12 12 11 11 11 10 10 10 10 10 9
16 16 15 15 15 15 15 15 15 14 14 14 14 14 13 13 13 13 13 13 13 13 13 13 13 13 13 13 13 13 12 12 12 11 11 10 10 10 10 10 9 9 9
15 15 15 15 15 15 14 14 14 14 14 13 13 13 13 13 13 13 13 13 13 13 13 13 13 13 12 12 12 12 12 11 11 11 10 10 10 10 9 9 9 9 8
Wind_Speed
6 5 5 4 4 4 5 7 5 5 5 3 2 2 2 2 3 3 4 4 5 6 5 3 4 4 3 3 4 3 2 2 2 2 2 2 3 3 3 4 4 6 7
6 5 4 4 4 4 3 5 5 6 5 3 2 2 2 2 2 2 4 5 5 5 4 3 3 3 3 4 4 3 2 1 1 1 1 1 2 2 2 2 3 4 6
6 6 4 4 4 4 4 4 5 6 5 4 2 2 2 1 2 3 2 3 5 5 5 4 3 3 3 3 3 2 2 1 1 1 1 1 1 1 2 2 3 3 3
5 6 5 4 4 4 4 4 4 5 5 4 2 1 2 2 2 2 2 2 4 4 3 3 3 3 3 3 2 2 1 1 1 1 2 2 2 1 1 1 2 3 3
5 6 5 4 4 4 3 4 4 5 4 4 2 1 2 2 2 3 3 2 2 3 2 3 3 2 3 3 3 3 2 1 1 1 1 2 2 1 2 1 1 1 2
6 5 5 5 4 5 4 3 4 4 3 3 3 2 2 2 2 2 2 2 2 1 1 3 2 2 2 2 2 3 3 2 2 2 2 2 1 1 1 1 1 1 1
6 6 5 5 4 4 3 3 4 3 3 3 3 3 3 3 2 3 3 3 2 2 2 2 2 2 2 3 3 2 2 2 2 2 2 2 1 1 1 2 1 1 1
5 5 5 5 5 4 4 3 3 3 2 3 3 3 3 2 2 2 2 3 3 2 3 3 3 3 3 3 3 2 1 2 2 2 2 1 1 1 2 1 2 1 1
5 5 5 5 5 4 4 3 3 3 3 3 2 2 2 2 1 2 2 2 2 3 3 3 3 4 3 3 3 2 2 2 2 2 2 1 1 1 1 1 2 2 1
5 5 5 4 4 4 3 4 3 3 3 2 2 2 2 2 1 0 1 2 3 3 3 3 4 4 3 3 3 2 2 2 2 2 2 2 1 1 1 1 1 1 2
5 5 4 4 4 4 4 3 2 2 2 2 2 3 2 2 2 1 1 1 2 3 3 3 3 3 4 4 3 2 2 2 1 2 2 2 2 1 1 1 2 2 2
5 5 4 4 3 4 4 3 3 3 2 2 2 1 2 3 2 2 2 2 2 2 2 2 2 2 3 3 4 3 2 2 1 1 2 2 2 2 2 2 1 1 2
4 4 4 3 3 3 3 3 3 3 2 2 2 2 2 3 3 3 2 2 2 2 2 2 2 2 2 2 2 3 2 2 2 2 2 2 3 2 2 2 2 1 2
4 4 4 4 3 3 3 3 2 2 2 2 2 2 2 2 2 2 2 1 2 2 2 2 2 3 2 2 2 2 2 2 2 3 3 3 4 2 2 2 1 1 2
3 4 4 4 4 3 3 3 2 2 3 2 3 3 2 2 2 3 2 2 2 2 2 2 2 2 2 2 2 2 2 2 2 3 4 5 7 7 4 3 2 2 2
3 3 3 3 3 3 3 3 3 3 3 4 3 2 2 2 2 2 3 3 2 2 2 2 2 2 2 4 4 3 1 2 2 2 3 3 5 6 6 7 7 6 4
3 2 3 2 3 2 2 3 3 3 3 3 3 3 3 2 2 3 3 3 3 2 2 2 2 2 2 4 3 3 2 1 1 2 2 2 3 4 3 3 4 5 5
3 2 1 2 2 2 2 2 3 3 3 3 3 3 3 3 2 2 3 3 3 3 3 2 2 2 2 4 3 3 2 0 1 1 2 2 2 2 3 4 3 2 2
2 1 1 2 2 2 2 2 3 2 2 3 3 3 4 4 4 3 3 3 3 3 4 3 3 3 3 4 4 4 2 1 0 1 2 2 2 4 5 4 2 2 1
1 1 1 1 2 2 2 2 2 3 3 3 3 4 4 4 5 5 4 3 3 3 4 3 3 4 3 4 6 6 3 2 2 1 1 3 3 4 5 3 2 1 1
1 1 1 2 1 1 1 2 2 2 2 2 2 3 4 4 4 4 4 4 4 4 3 3 3 3 3 4 6 8 3 3 3 2 2 2 5 4 4 3 2 1 1
1 1 1 2 2 2 2 2 1 1 1 1 2 3 4 4 4 4 4 4 4 4 4 3 3 2 3 3 5 8 7 4 3 2 2 2 6 5 4 3 2 2 2
1 1 1 2 2 2 2 2 1 1 1 1 2 3 4 4 4 4 5 4 4 4 4 4 4 3 2 3 6 6 6 5 3 2 3 4 5 5 3 3 3 2 1
1 1 2 3 2 2 2 2 1 2 2 3 3 2 3 3 3 3 3 3 4 4 4 4 4 3 3 3 3 3 4 4 4 3 3 3 4 3 3 2 2 1 1
2 2 3 3 3 3 3 2 2 2 3 2 2 1 1 3 3 2 2 4 4 5 5 5 5 4 4 4 6 5 4 4 4 3 2 2 2 2 2 2 2 2 1
2 2 2 3 4 3 3 3 2 3 3 2 2 2 2 2 3 3 2 1 3 4 5 5 5 4 5 5 6 6 6 5 6 4 3 3 3 3 3 3 2 2 2
Wind_Direction
125 115 121 121 125 117 116 118 126 109 96 86 75 76 68 61 53 56 66 56 51 67 78 77 77 76 77 78 86 73 77 69 75 78 70 65 79 69 62 51 53 55 62
129 121 125 129 132 125 118 120 114 109 100 95 106 110 99 95 96 56 46 46 52 60 79 100 101 96 90 72 75 75 44 38 59 75 81 74 42 15 70 65 62 66 60
143 139 142 123 127 127 122 114 116 113 112 106 77 89 96 88 89 83 61 49 53 48 46 65 100 118 122 111 103 99 93 37 349 43 72 87 98 338 34 66 69 65 65
131 129 133 134 132 130 128 119 114 111 107 104 81 90 103 106 122 124 120 95 78 68 41 55 79 103 108 113 125 113 93 82 7 359 31 64 110 131 54 15 57 69 70
137 134 131 129 119 111 113 112 109 103 103 105 105 73 89 102 105 114 114 108 88 75 51 61 63 83 106 114 104 97 79 82 52 32 28 30 22 28 119 92 31 58 67
139 135 127 121 109 103 105 111 111 107 113 130 147 144 128 132 124 120 133 135 122 109 98 93 88 84 93 103 102 104 101 76 50 42 46 66 58 5 54 99 117 108 120
141 139 135 135 123 122 121 121 120 127 148 170 175 159 163 166 150 142 159 151 141 143 156 126 119 103 95 94 91 101 107 109 91 69 45 49 50 32 42 84 69 60 131
130 135 137 138 136 139 145 156 145 154 172 199 192 167 161 171 143 151 158 149 147 147 140 141 133 113 102 102 98 87 88 99 101 99 90 65 40 40 66 103 96 48 27
131 131 130 137 143 152 161 167 161 169 194 212 188 162 157 154 165 178 152 140 143 142 139 140 129 123 116 108 106 101 97 72 70 79 78 86 79 59 41 62 109 132 99
136 135 141 146 147 149 153 164 172 183 198 219 193 164 160 166 181 143 132 145 146 140 150 160 144 137 131 115 100 86 94 92 91 89 64 50 78 68 51 33 26 85 129
133 136 143 149 153 146 154 164 162 180 206 213 191 177 172 169 161 155 149 153 160 163 165 160 150 151 146 133 124 130 122 128 130 120 109 81 72 61 40 44 42 44 86
136 137 140 150 154 154 164 166 173 187 196 209 196 188 163 167 181 178 183 186 175 168 158 142 136 139 135 139 145 148 142 135 115 96 93 98 82 61 59 60 52 64 91
140 138 138 148 158 157 163 174 181 177 179 187 199 187 193 179 178 176 166 175 165 161 144 125 122 109 109 123 140 147 140 125 112 102 83 78 88 72 56 53 49 59 75
151 144 152 164 171 177 180 175 181 176 173 176 199 192 194 179 175 158 152 162 157 155 153 138 133 122 116 112 111 111 111 102 94 90 81 66 71 70 69 66 51 78 81
153 152 164 173 178 182 178 173 177 174 182 190 204 203 200 179 169 160 162 158 148 151 135 126 121 114 113 80 80 97 114 102 89 85 90 86 81 71 64 62 48 54 76
158 161 166 169 186 185 183 183 178 184 189 191 205 193 183 185 176 175 160 148 137 125 106 117 115 104 105 94 88 80 85 118 135 132 127 123 106 99 87 76 71 72 74
163 173 179 188 196 189 181 188 187 184 185 189 191 177 177 187 180 170 149 149 150 142 146 144 124 123 120 119 106 96 82 106 156 148 143 127 127 130 139 108 84 65 60
157 170 199 199 206 197 188 185 166 170 176 186 188 172 172 174 170 158 163 168 166 158 156 151 147 138 135 143 136 133 130 342 46 95 119 129 141 130 135 131 116 103 75
141 165 227 217 200 204 185 169 167 174 187 192 191 179 175 179 179 182 185 181 169 166 160 166 161 165 175 168 162 144 147 161 122 80 85 102 109 106 120 122 129 135 155
119 189 245 211 188 196 182 184 195 199 202 203 203 191 182 182 189 194 188 178 167 161 157 161 168 173 180 172 171 162 164 176 174 136 95 91 103 110 129 134 144 169 188
172 220 211 179 192 189 182 208 229 221 206 194 196 184 176 184 189 190 187 174 166 165 169 165 170 179 182 175 176 171 176 183 174 159 163 148 130 127 138 140 153 172 125
197 221 197 182 181 179 180 218 232 227 180 178 186 188 183 184 187 182 185 178 172 174 180 178 182 191 178 160 171 174 181 177 171 173 168 149 138 139 144 155 147 107 76
222 215 204 197 185 178 177 203 218 188 195 195 200 199 193 185 181 185 184 179 183 187 192 188 192 191 173 160 157 165 174 179 180 170 146 135 144 148 152 151 140 123 128
220 225 210 203 204 198 198 194 188 206 207 207 201 201 193 184 177 176 179 181 187 192 198 194 195 191 177 168 167 169 174 175 184 186 162 159 168 175 171 158 169 170 168
222 227 220 209 208 202 200 183 185 204 212 210 190 183 183 182 180 169 184 188 187 190 195 202 199 187 193 197 180 174 184 188 187 175 166 165 168 179 188 180 174 175 180
251 243 238 215 212 201 196 187 195 205 205 205 202 202 212 192 178 168 160 145 180 174 174 177 180 184 186 178 172 171 168 165 163 159 178 193 194 194 195 192 192 188 193
Height
1538 1539 1541 1542 1544 1545 1546 1546 1547 1548 1549 1549 1550 1550 1551 1552 1552 1552 1552 1553 1553 1553 1553 1554 1554 1554 1554 1554 1554 1555 1555 1556 1556 1556 1556 1556 1556 1556 1555 1555 1554 1554 1554
1537 1539 1541 1542 1544 1545 1546 1546 1548 1548 1549 1550 1550 1551 1551 1552 1552 1552 1553 1553 1553 1553 1554 1554 1554 1554 1554 1555 1555 1555 1556 1556 1557 1557 1557 1557 1559 1557 1557 1556 1556 1556 1555
1536 1538 1540 1542 1543 1545 1546 1547 1548 1548 1549 1550 1551 1551 1551 1551 1552 1552 1552 1553 1553 1554 1554 1554 1555 1555 1555 1555 1555 1556 1556 1557 1557 1557 1558 1558 1558 1558 1559 1558 1558 1557 1557
1536 1538 1540 1541 1543 1544 1546 1547 1548 1548 1549 1550 1550 1551 1551 1552 1552 1552 1553 1553 1554 1554 1554 1555 1555 1555 1556 1556 1556 1556 1556 1557 1558 1558 1558 1559 1558 1559 1559 1560 1559 1558 1558
1535 1537 1539 1541 1542 1544 1546 1547 1548 1548 1549 1550 1550 1551 1551 1552 1552 1553 1553 1553 1553 1554 1554 1555 1555 1555 1556 1556 1556 1556 1557 1557 1557 1558 1558 1558 1558 1559 1559 1559 1560 1559 1558
1535 1537 1539 1541 1542 1543 1545 1546 1547 1548 1549 1549 1550 1551 1551 1552 1552 1552 1553 1553 1553 1553 1554 1554 1555 1555 1555 1556 1557 1557 1557 1557 1557 1557 1558 1558 1558 1558 1559 1558 1559 1559 1559
1534 1536 1538 1540 1542 1543 1544 1545 1547 1547 1548 1549 1550 1551 1551 1552 1552 1552 1552 1553 1553 1553 1554 1554 1555 1555 1556 1556 1556 1557 1557 1557 1557 1557 1558 1558 1558 1558 1558 1558 1558 1559 1559
1534 1536 1538 1539 1541 1542 1543 1545 1546 1546 1547 1548 1549 1550 1551 1551 1552 1552 1552 1553 1553 1553 1554 1554 1555 1555 1556 1556 1556 1557 1557 1557 1557 1557 1557 1558 1558 1558 1558 1559 1559 1559 1559
1534 1536 1537 1539 1540 1541 1542 1544 1545 1546 1546 1548 1549 1549 1550 1551 1551 1552 1552 1553 1553 1553 1554 1554 1554 1555 1555 1556 1556 1556 1557 1557 1557 1557 1557 1557 1558 1558 1558 1558 1559 1559 1559
1533 1535 1537 1538 1539 1540 1542 1543 1544 1544 1545 1546 1548 1548 1549 1549 1550 1551 1552 1552 1553 1553 1554 1554 1554 1554 1555 1555 1556 1556 1556 1557 1557 1557 1557 1557 1557 1557 1557 1558 1558 1558 1558
1533 1535 1536 1537 1539 1540 1541 1542 1542 1543 1544 1545 1546 1547 1548 1548 1549 1549 1550 1551 1552 1552 1553 1553 1554 1554 1554 1555 1555 1555 1556 1556 1556 1557 1557 1557 1557 1557 1557 1557 1557 1557 1558
1532 1534 1535 1537 1538 1539 1540 1540 1541 1542 1542 1543 1544 1545 1545 1546 1547 1548 1549 1549 1550 1551 1552 1552 1553 1553 1554 1554 1554 1555 1555 1555 1556 1556 1556 1556 1556 1556 1556 1556 1556 1557 1557
1531 1533 1534 1536 1537 1538 1538 1539 1540 1540 1541 1541 1542 1542 1543 1544 1545 1546 1547 1548 1549 1550 1550 1551 1552 1552 1552 1553 1554 1554 1554 1555 1555 1555 1555 1555 1555 1555 1555 1555 1555 1555 1555
1530 1532 1533 1534 1535 1536 1537 1538 1538 1538 1539 1539 1540 1540 1541 1542 1543 1544 1545 1546 1547 1548 1548 1549 1550 1551 1551 1552 1552 1553 1553 1554 1554 1554 1554 1554 1554 1553 1554 1554 1554 1554 1554
1528 1530 1531 1532 1534 1534 1535 1536 1536 1536 1536 1537 1537 1538 1539 1540 1541 1542 1543 1544 1545 1546 1547 1547 1548 1549 1549 1550 1551 1551 1552 1552 1552 1553 1553 1552 1552 1552 1552 1552 1552 1552 1552
1527 1528 1529 1530 1531 1532 1533 1533 1533 1534 1534 1535 1535 1536 1536 1537 1538 1539 1541 1542 1542 1543 1545 1545 1546 1547 1547 1548 1549 1550 1550 1550 1551 1551 1551 1551 1551 1551 1551 1551 1551 1551 1551
1525 1526 1527 1528 1529 1530 1530 1530 1531 1531 1532 1532 1533 1534 1534 1535 1536 1537 1538 1539 1540 1541 1542 1543 1544 1545 1546 1546 1547 1548 1548 1548 1549 1549 1549 1549 1549 1549 1549 1549 1549 1549 1549
1523 1524 1525 1526 1527 1527 1528 1528 1528 1529 1529 1530 1530 1531 1532 1533 1534 1535 1536 1537 1538 1539 1540 1541 1542 1543 1543 1544 1545 1545 1546 1546 1547 1547 1547 1547 1547 1547 1547 1547 1547 1547 1547
1521 1522 1523 1524 1524 1525 1525 1525 1526 1526 1527 1527 1527 1528 1529 1530 1531 1532 1533 1534 1535 1536 1537 1538 1539 1540 1541 1542 1542 1543 1543 1544 1544 1545 1545 1545 1545 1545 1545 1545 1545 1545 1545
1519 1520 1520 1521 1522 1522 1523 1523 1523 1523 1524 1524 1524 1525 1526 1527 1528 1529 1530 1531 1532 1533 1534 1535 1536 1537 1538 1539 1540 1540 1541 1541 1542 1542 1542 1543 1543 1543 1543 1543 1543 1543 1543
1516 1517 1518 1518 1519 1519 1520 1520 1520 1521 1521 1521 1522 1522 1523 1524 1525 1526 1528 1529 1529 1530 1531 1532 1533 1534 1535 1536 1537 1537 1538 1538 1539 1539 1540 1540 1540 1540 1540 1540 1540 1540 1541
1514 1515 1515 1516 1516 1517 1517 1518 1518 1518 1518 1519 1519 1519 1520 1521 1522 1523 1524 1526 1527 1527 1528 1529 1530 1531 1532 1533 1533 1534 1535 1535 1536 1536 1537 1537 1537 1537 1537 1538 1538 1538 1538
1511 1512 1513 1513 1514 1514 1515 1515 1515 1515 1516 1516 1516 1516 1517 1518 1519 1519 1520 1521 1523 1524 1525 1526 1527 1528 1529 1529 1530 1531 1531 1532 1532 1533 1534 1534 1534 1534 1534 1534 1535 1535 1535
1509 1509 1510 1510 1511 1511 1512 1512 1512 1513 1513 1513 1513 1514 1514 1514 1515 1516 1517 1518 1519 1520 1521 1522 1523 1524 1525 1526 1526 1527 1528 1529 1529 1530 1530 1530 1531 1531 1531 1531 1531 1531 1531
1506 1506 1507 1507 1508 1508 1509 1509 1509 1509 1509 1510 1510 1510 1511 1511 1512 1513 1514 1515 1516 1516 1517 1518 1520 1520 1521 1522 1523 1523 1524 1525 1526 1526 1526 1526 1526 1527 1527 1527 1527 1528 1528
1503 1503 1504 1504 1505 1505 1506 1506 1506 1506 1506 1507 1507 1507 1508 1508 1509 1510 1511 1511 1513 1513 1514 1515 1517 1517 1518 1519 1519 1520 1521 1521 1522 1523 1522 1522 1522 1523 1523 1523 1523 1524 1524